Weather in Venyukovo

Russia / Khabarovsk Krai     47°28′58″N   134°34′26″E
temp.,
°C
wind,
m/s
gust,
m/s
humid.,
%
clouds,
%
prec.,
mm/h
press.,
hPa
HPBL,
m
27 february, sat
sat2701:00−20ssw33930 0.0 103529
04:00−21ssw33930 0.0 103536
07:00−21ssw23910 0.0 103622
10:00−16s13880 0.0 1035116
13:00−10sw147667 0.0 1033486
16:00−8s147783 0.0 1028460
19:00−10ese1286100 0.0 102552
22:00−7s41675100 0.0 1023631
28 february, sun
sun2801:00−6ssw91979100 0.0 1021466
04:00−5ssw91785100 0.1 1019547
07:00−3sw81595100 1.5 1019755
10:00−2w61095100 2.6 1020604
13:00−5w5988100 0.3 1021606
16:00−7w6977100 0.3 1023724
19:00−10wsw4982100 0.0 1025352
22:00−13wsw4982100 0.0 1027220
1 march, mon
mon101:00−16wsw3784100 0.0 1028139
04:00−21sw348867 0.0 103145
07:00−23sw44900 0.0 103376
10:00−20sw47850 0.0 1034304
13:00−15wsw46750 0.0 1034443
16:00−14wnw46690 0.0 1034979
19:00−19sw33820 0.0 103422
22:00−21ssw33800 0.0 103421
2 march, tue
tue201:00−22ssw33790 0.0 103421
04:00−22ssw228047 0.0 103320
07:00−22nw1282100 0.0 103420
10:00−20wsw118784 0.0 103367
13:00−17nw22810 0.0 1032245
16:00−16nnw22730 0.0 1031262
19:00−22se11770 0.0 103120
22:00−22s22730 0.0 103220
3 march, wed
wed301:00−23ssw22800 0.0 103120
04:00−24s12810 0.0 103120
07:00−24sse12780 0.0 103020
10:00−18ese11730 0.0 102980
13:00−12nne126844 0.0 1025364
16:00−10wnw127572 0.0 1021244
19:00−11s1381100 0.0 102096
22:00−9ssw41394100 0.6 1019673